Time,TemperatureF,DewpointF,PressureIn,WindDirection,WindDirectionDegrees,WindSpeedMPH,WindSpeedGustMPH,Humidity,HourlyPrecipIn,Conditions,Clouds,dailyrainin,SoftwareType,DateUTC
2013-06-13 00:02:00,77.8,74.0,30.76,South,173,3.0,-999.0,87,-99.99,,,0.00,weatherlink.com 1.10,2013-06-13 05:02:00,
2013-06-13 00:17:00,77.5,74.0,30.77,South,171,1.0,-999.0,88,-99.99,,,0.00,weatherlink.com 1.10,2013-06-13 05:17:00,
2013-06-13 00:32:00,77.4,73.0,30.76,South,171,1.0,-999.0,87,-99.99,,,0.00,weatherlink.com 1.10,2013-06-13 05:32:00,
2013-06-13 00:47:00,77.0,73.0,30.76,South,170,2.0,-999.0,87,-99.99,,,0.00,weatherlink.com 1.10,2013-06-13 05:47:00,
2013-06-13 01:02:00,76.5,73.0,30.76,South,171,2.0,-999.0,88,-99.99,,,0.00,weatherlink.com 1.10,2013-06-13 06:02:00,
2013-06-13 01:17:00,76.1,72.0,30.77,South,171,2.0,-999.0,88,-99.99,,,0.00,weatherlink.com 1.10,2013-06-13 06:17:00,
2013-06-13 01:32:00,75.9,73.0,30.77,South,169,3.0,-999.0,89,-99.99,,,0.00,weatherlink.com 1.10,2013-06-13 06:32:00,
2013-06-13 01:47:00,75.6,72.0,30.77,SSE,165,1.0,-999.0,89,-99.99,,,0.00,weatherlink.com 1.10,2013-06-13 06:47:00,
2013-06-13 02:03:00,75.3,72.0,30.77,SSE,167,1.0,-999.0,90,-99.99,,,0.00,weatherlink.com 1.10,2013-06-13 07:03:00,
2013-06-13 02:18:00,75.0,72.0,30.77,SSE,167,2.0,-999.0,90,-99.99,,,0.00,weatherlink.com 1.10,2013-06-13 07:18:00,
2013-06-13 02:33:00,74.8,72.0,30.76,SSE,167,2.0,-999.0,91,-99.99,,,0.00,weatherlink.com 1.10,2013-06-13 07:33:00,
2013-06-13 02:48:00,74.7,72.0,30.76,SSE,166,2.0,-999.0,91,-99.99,,,0.00,weatherlink.com 1.10,2013-06-13 07:48:00,
2013-06-13 03:03:00,74.5,72.0,30.76,SSE,166,2.0,-999.0,91,-99.99,,,0.00,weatherlink.com 1.10,2013-06-13 08:03:00,
2013-06-13 03:18:00,74.4,72.0,30.76,SSE,167,2.0,-999.0,92,-99.99,,,0.00,weatherlink.com 1.10,2013-06-13 08:18:00,
2013-06-13 03:33:00,74.2,72.0,30.76,SSE,167,0.0,-999.0,92,-99.99,,,0.00,weatherlink.com 1.10,2013-06-13 08:33:00,
2013-06-13 03:48:00,74.1,72.0,30.76,SSE,167,0.0,-999.0,92,-99.99,,,0.00,weatherlink.com 1.10,2013-06-13 08:48:00,
2013-06-13 04:03:00,73.8,71.0,30.76,SSE,167,0.0,-999.0,92,-99.99,,,0.00,weatherlink.com 1.10,2013-06-13 09:03:00,
2013-06-13 04:18:00,73.4,71.0,30.76,SSE,167,0.0,-999.0,92,-99.99,,,0.00,weatherlink.com 1.10,2013-06-13 09:18:00,
2013-06-13 04:33:00,73.0,71.0,30.76,SSE,167,0.0,-999.0,92,-99.99,,,0.00,weatherlink.com 1.10,2013-06-13 09:33:00,
2013-06-13 04:48:00,72.8,70.0,30.77,SSE,167,0.0,-999.0,92,-99.99,,,0.00,weatherlink.com 1.10,2013-06-13 09:48:00,
2013-06-13 05:03:00,72.9,71.0,30.77,SSE,167,0.0,-999.0,92,-99.99,,,0.00,weatherlink.com 1.10,2013-06-13 10:03:00,
2013-06-13 05:18:00,72.7,70.0,30.77,SSE,167,0.0,-999.0,92,-99.99,,,0.00,weatherlink.com 1.10,2013-06-13 10:18:00,
2013-06-13 05:33:00,72.4,70.0,30.78,SSE,167,0.0,-999.0,92,-99.99,,,0.00,weatherlink.com 1.10,2013-06-13 10:33:00,
2013-06-13 05:48:00,72.3,70.0,30.78,SSE,167,0.0,-999.0,93,-99.99,,,0.00,weatherlink.com 1.10,2013-06-13 10:48:00,
2013-06-13 06:03:00,72.2,70.0,30.79,SSE,167,0.0,-999.0,93,-99.99,,,0.00,weatherlink.com 1.10,2013-06-13 11:03:00,
2013-06-13 06:18:00,71.9,70.0,30.79,SSE,167,0.0,-999.0,92,-99.99,,,0.00,weatherlink.com 1.10,2013-06-13 11:18:00,
2013-06-13 06:33:00,72.2,70.0,30.79,SSE,167,0.0,-999.0,93,-99.99,,,0.00,weatherlink.com 1.10,2013-06-13 11:33:00,
2013-06-13 06:48:00,72.6,71.0,30.80,SSE,167,0.0,-999.0,93,-99.99,,,0.00,weatherlink.com 1.10,2013-06-13 11:48:00,
2013-06-13 07:02:00,72.9,71.0,30.80,SSE,167,0.0,-999.0,94,-99.99,,,0.00,weatherlink.com 1.10,2013-06-13 12:02:00,
2013-06-13 07:17:00,74.1,72.0,30.81,SSE,167,0.0,-999.0,94,-99.99,,,0.00,weatherlink.com 1.10,2013-06-13 12:17:00,
2013-06-13 07:32:00,75.6,74.0,30.81,SSE,167,0.0,-999.0,94,-99.99,,,0.00,weatherlink.com 1.10,2013-06-13 12:32:00,
2013-06-13 07:47:00,76.5,75.0,30.81,SSE,167,0.0,-999.0,94,-99.99,,,0.00,weatherlink.com 1.10,2013-06-13 12:47:00,
2013-06-13 08:03:00,77.6,76.0,30.82,SSE,167,0.0,-999.0,94,-99.99,,,0.00,weatherlink.com 1.10,2013-06-13 13:03:00,
2013-06-13 08:18:00,78.3,76.0,30.82,SSE,166,0.0,-999.0,92,-99.99,,,0.00,weatherlink.com 1.10,2013-06-13 13:18:00,
2013-06-13 08:33:00,79.1,76.0,30.82,SSE,166,1.0,-999.0,91,-99.99,,,0.00,weatherlink.com 1.10,2013-06-13 13:33:00,
2013-06-13 08:48:00,79.8,77.0,30.82,SSE,162,4.0,-999.0,90,-99.99,,,0.00,weatherlink.com 1.10,2013-06-13 13:48:00,
2013-06-13 09:03:00,80.3,77.0,30.83,South,169,4.0,-999.0,89,-99.99,,,0.00,weatherlink.com 1.10,2013-06-13 14:03:00,
2013-06-13 09:18:00,81.2,77.0,30.83,SSE,157,2.0,-999.0,88,-99.99,,,0.00,weatherlink.com 1.10,2013-06-13 14:18:00,
2013-06-13 09:33:00,81.9,77.0,30.82,SSE,167,5.0,-999.0,86,-99.99,,,0.00,weatherlink.com 1.10,2013-06-13 14:33:00,
2013-06-13 09:48:00,82.7,77.0,30.82,SSE,150,1.0,-999.0,83,-99.99,,,0.00,weatherlink.com 1.10,2013-06-13 14:48:00,
2013-06-13 10:03:00,83.2,76.0,30.82,SSE,167,3.0,-999.0,80,-99.99,,,0.00,weatherlink.com 1.10,2013-06-13 15:03:00,
2013-06-13 10:18:00,83.5,77.0,30.82,South,170,2.0,-999.0,80,-99.99,,,0.00,weatherlink.com 1.10,2013-06-13 15:18:00,
2013-06-13 10:33:00,84.5,77.0,30.81,South,180,0.0,-999.0,78,-99.99,,,0.00,weatherlink.com 1.10,2013-06-13 15:33:00,
2013-06-13 10:48:00,85.3,78.0,30.81,SSW,198,1.0,-999.0,78,-99.99,,,0.00,weatherlink.com 1.10,2013-06-13 15:48:00,
2013-06-13 11:03:00,85.4,77.0,30.82,SSW,211,4.0,-999.0,75,-99.99,,,0.00,weatherlink.com 1.10,2013-06-13 16:03:00,
2013-06-13 11:18:00,86.0,76.0,30.82,South,169,4.0,-999.0,71,-99.99,,,0.00,weatherlink.com 1.10,2013-06-13 16:18:00,
2013-06-13 11:33:00,86.5,76.0,30.82,South,170,1.0,-999.0,71,-99.99,,,0.00,weatherlink.com 1.10,2013-06-13 16:33:00,
2013-06-13 11:48:00,87.2,77.0,30.81,SE,136,2.0,-999.0,71,-99.99,,,0.00,weatherlink.com 1.10,2013-06-13 16:48:00,
2013-06-13 12:03:00,87.3,76.0,30.80,SSE,166,3.0,-999.0,69,-99.99,,,0.00,weatherlink.com 1.10,2013-06-13 17:03:00,
2013-06-13 12:19:00,88.4,78.0,30.80,SSE,160,2.0,-999.0,70,-99.99,,,0.00,weatherlink.com 1.10,2013-06-13 17:19:00,
2013-06-13 12:34:00,88.8,76.0,30.80,SSW,194,3.0,-999.0,67,-99.99,,,0.00,weatherlink.com 1.10,2013-06-13 17:34:00,
2013-06-13 12:49:00,89.3,77.0,30.79,SW,214,4.0,-999.0,67,-99.99,,,0.00,weatherlink.com 1.10,2013-06-13 17:49:00,
2013-06-13 13:03:00,89.9,77.0,30.78,South,178,3.0,-999.0,66,-99.99,,,0.00,weatherlink.com 1.10,2013-06-13 18:03:00,
2013-06-13 13:18:00,90.0,78.0,30.78,ESE,122,1.0,-999.0,67,-99.99,,,0.00,weatherlink.com 1.10,2013-06-13 18:18:00,
2013-06-13 13:33:00,90.5,78.0,30.77,SSE,165,2.0,-999.0,66,-99.99,,,0.00,weatherlink.com 1.10,2013-06-13 18:33:00,
2013-06-13 13:48:00,91.1,76.0,30.77,SSW,199,2.0,-999.0,61,-99.99,,,0.00,weatherlink.com 1.10,2013-06-13 18:48:00,
2013-06-13 14:04:00,91.4,76.0,30.76,South,190,4.0,-999.0,61,-99.99,,,0.00,weatherlink.com 1.10,2013-06-13 19:04:00,
2013-06-13 14:19:00,91.0,78.0,30.75,South,169,2.0,-999.0,66,-99.99,,,0.00,weatherlink.com 1.10,2013-06-13 19:19:00,
2013-06-13 14:34:00,91.4,76.0,30.75,ENE,69,1.0,-999.0,60,-99.99,,,0.00,weatherlink.com 1.10,2013-06-13 19:34:00,
2013-06-13 14:49:00,92.2,76.0,30.74,SSE,159,3.0,-999.0,60,-99.99,,,0.00,weatherlink.com 1.10,2013-06-13 19:49:00,
2013-06-13 15:04:00,92.6,77.0,30.73,South,182,3.0,-999.0,61,-99.99,,,0.00,weatherlink.com 1.10,2013-06-13 20:04:00,
2013-06-13 15:19:00,92.9,78.0,30.72,South,185,1.0,-999.0,62,-99.99,,,0.00,weatherlink.com 1.10,2013-06-13 20:19:00,
2013-06-13 15:34:00,92.7,77.0,30.73,South,175,4.0,-999.0,61,-99.99,,,0.00,weatherlink.com 1.10,2013-06-13 20:34:00,
2013-06-13 15:49:00,92.9,77.0,30.71,East,80,3.0,-999.0,61,-99.99,,,0.00,weatherlink.com 1.10,2013-06-13 20:49:00,
2013-06-13 16:19:00,93.0,77.0,30.70,South,180,3.0,-999.0,59,-99.99,,,0.00,weatherlink.com 1.10,2013-06-13 21:19:00,
2013-06-13 16:34:00,93.4,76.0,30.70,SSE,157,0.0,-999.0,58,-99.99,,,0.00,weatherlink.com 1.10,2013-06-13 21:34:00,
2013-06-13 16:49:00,93.6,75.0,30.68,ENE,75,2.0,-999.0,54,-99.99,,,0.00,weatherlink.com 1.10,2013-06-13 21:49:00,
2013-06-13 17:04:00,93.4,75.0,30.68,East,86,0.0,-999.0,56,-99.99,,,0.00,weatherlink.com 1.10,2013-06-13 22:04:00,
2013-06-13 17:20:00,93.6,77.0,30.68,SE,134,1.0,-999.0,58,-99.99,,,0.00,weatherlink.com 1.10,2013-06-13 22:20:00,
2013-06-13 17:34:00,93.5,75.0,30.66,South,172,2.0,-999.0,56,-99.99,,,0.00,weatherlink.com 1.10,2013-06-13 22:34:00,
2013-06-13 17:49:00,93.1,74.0,30.66,South,175,0.0,-999.0,54,-99.99,,,0.00,weatherlink.com 1.10,2013-06-13 22:49:00,
2013-06-13 18:04:00,93.1,76.0,30.65,South,181,2.0,-999.0,57,-99.99,,,0.00,weatherlink.com 1.10,2013-06-13 23:04:00,
2013-06-13 18:19:00,92.4,75.0,30.66,South,172,2.0,-999.0,58,-99.99,,,0.00,weatherlink.com 1.10,2013-06-13 23:19:00,
2013-06-13 18:34:00,92.0,75.0,30.65,South,169,4.0,-999.0,58,-99.99,,,0.00,weatherlink.com 1.10,2013-06-13 23:34:00,
2013-06-13 18:49:00,90.6,76.0,30.66,South,176,1.0,-999.0,62,-99.99,,,0.00,weatherlink.com 1.10,2013-06-13 23:49:00,
2013-06-13 19:04:00,89.4,76.0,30.66,SSE,161,1.0,-999.0,64,-99.99,,,0.00,weatherlink.com 1.10,2013-06-14 00:04:00,
2013-06-13 19:19:00,88.6,76.0,30.66,SSE,163,1.0,-999.0,66,-99.99,,,0.00,weatherlink.com 1.10,2013-06-14 00:19:00,
2013-06-13 19:34:00,87.7,75.0,30.66,SSE,163,1.0,-999.0,66,-99.99,,,0.00,weatherlink.com 1.10,2013-06-14 00:34:00,
2013-06-13 19:49:00,87.0,75.0,30.67,SSE,163,2.0,-999.0,67,-99.99,,,0.00,weatherlink.com 1.10,2013-06-14 00:49:00,
2013-06-13 20:04:00,86.7,75.0,30.66,SSE,163,0.0,-999.0,68,-99.99,,,0.00,weatherlink.com 1.10,2013-06-14 01:04:00,
2013-06-13 20:19:00,86.0,75.0,30.66,SSE,163,0.0,-999.0,70,-99.99,,,0.00,weatherlink.com 1.10,2013-06-14 01:19:00,
2013-06-13 20:34:00,84.8,75.0,30.66,SSE,163,0.0,-999.0,73,-99.99,,,0.00,weatherlink.com 1.10,2013-06-14 01:34:00,
2013-06-13 20:49:00,83.6,75.0,30.66,SSE,163,0.0,-999.0,76,-99.99,,,0.00,weatherlink.com 1.10,2013-06-14 01:49:00,
2013-06-13 21:04:00,82.7,74.0,30.66,South,174,7.0,-999.0,76,-99.99,,,0.00,weatherlink.com 1.10,2013-06-14 02:04:00,
2013-06-13 21:19:00,83.3,75.0,30.67,South,183,3.0,-999.0,76,-99.99,,,0.00,weatherlink.com 1.10,2013-06-14 02:19:00,
2013-06-13 21:34:00,82.7,75.0,30.68,SSW,199,2.0,-999.0,77,-99.99,,,0.00,weatherlink.com 1.10,2013-06-14 02:34:00,
2013-06-13 21:49:00,82.1,75.0,30.68,SSW,198,0.0,-999.0,78,-99.99,,,0.00,weatherlink.com 1.10,2013-06-14 02:49:00,
2013-06-13 22:04:00,81.6,75.0,30.69,SSW,198,0.0,-999.0,79,-99.99,,,0.00,weatherlink.com 1.10,2013-06-14 03:04:00,
2013-06-13 22:19:00,81.0,74.0,30.70,SSW,196,0.0,-999.0,80,-99.99,,,0.00,weatherlink.com 1.10,2013-06-14 03:19:00,
2013-06-13 22:34:00,80.6,74.0,30.70,SSW,196,0.0,-999.0,81,-99.99,,,0.00,weatherlink.com 1.10,2013-06-14 03:34:00,
2013-06-13 22:49:00,80.2,74.0,30.70,SSW,196,0.0,-999.0,82,-99.99,,,0.00,weatherlink.com 1.10,2013-06-14 03:49:00,
2013-06-13 23:04:00,80.1,75.0,30.70,SSW,196,0.0,-999.0,83,-99.99,,,0.00,weatherlink.com 1.10,2013-06-14 04:04:00,
2013-06-13 23:19:00,79.9,74.0,30.70,SSW,196,0.0,-999.0,83,-99.99,,,0.00,weatherlink.com 1.10,2013-06-14 04:19:00,
2013-06-13 23:34:00,79.4,74.0,30.71,SSW,196,0.0,-999.0,83,-99.99,,,0.00,weatherlink.com 1.10,2013-06-14 04:34:00,
2013-06-13 23:49:00,78.9,74.0,30.71,SSW,196,0.0,-999.0,85,-99.99,,,0.00,weatherlink.com 1.10,2013-06-14 04:49:00,